Weather in Novoelnya

Belarus     53°27′51″N   25°34′51″E
temp.,
°C
wind,
m/s
gust,
m/s
humid.,
%
clouds,
%
prec.,
mm/h
press.,
hPa
HPBL,
m
17 august, wed
wed1700:00+20e41175100 0.0 1013336
03:00+18e41079100 0.0 1013234
06:00+18e4107684 0.0 1013255
09:00+19e387399 0.0 1013207
12:00+25e58535 0.0 1013824
15:00+28e47455 0.0 10121771
18:00+26ene47585 0.0 1012811
21:00+20ene36735 0.0 1013102
18 august, thu
thu1800:00+19e48805 0.0 1014139
03:00+18e34815 0.0 101463
06:00+17ene35855 0.0 101483
09:00+21ene48705 0.0 1015318
12:00+26e57505 0.0 1015764
15:00+28e45455 0.0 10141341
18:00+28ene35525 0.0 1014645
21:00+22ene5136213 0.0 1015311
19 august, fri
fri1900:00+20e411725 0.0 1015199
03:00+19ese410765 0.0 1016170
06:00+18ese38839 0.0 1016136
09:00+21ese586948 0.0 1017303
12:00+25ese4652100 0.0 1016701
15:00+28ese4545100 0.0 10161241
18:00+28e355198 0.0 10151053
21:00+22e5136460 0.0 1015336
20 august, sat
sat2000:00+20ese412725 0.0 1015266
03:00+18ese49805 0.0 1016185
06:00+17ese49875 0.0 1016198
09:00+20ese610795 0.0 1015401
12:00+24se57614 0.0 1015886
15:00+27se565221 0.0 10141743
18:00+27ese46564 0.0 10131101
21:00+22e496924 0.0 1013149
21 august, sun
sun2100:00+23ese5125493 0.0 1013349
03:00+21ese5106393 0.0 1013208
06:00+21se41162100 0.0 1013270
09:00+21se51168100 0.0 1013275
12:00+23se496575 0.0 1013352
15:00+28sse2547100 0.0 10121578
18:00+28e245383 0.0 1011690
21:00+22nnw3477100 0.1 101297